This demonstration page uses our WeatherBlox Daily Observations layout. Learn more.

Left ArrowRight Arrow

44.31136, -96.79839

Hourly Observations for August 25, 2017

Temp ( °F °C ) Dew Point ( °F °C ) Humidity (%) Winds ( mph kmh ) Pressure ( in mb ) Visibility ( mi km ) Precip ( " mm )
12:56 am 00:56 Mostly Cloudy 63 17.2 60 15.6 90 90 SE 14 22 30.02 1017 N/A 0.00 0.00
1:56 am 01:56 Mostly Cloudy 63 17.2 60 15.6 90 90 SE 14 22 30.02 1017 N/A 0.00 0.00
2:56 am 02:56 Cloudy 63 17.2 60 15.6 90 90 SE 14 22 30.01 1016 N/A 0.00 0.00
3:56 am 03:56 Mostly Cloudy 63 17.2 60 15.6 90 90 SSE 12 19 30.01 1016 N/A 0.00 0.00
4:56 am 04:56 Partly Cloudy 63 17.2 60 15.6 90 90 SE 12 19 30.02 1017 N/A 0.00 0.00
5:56 am 05:56 Mostly Cloudy 63 17.2 60 15.6 90 90 SSE 13 20 30.01 1016 N/A 0.00 0.00
6:56 am 06:56 Partly Cloudy 62 16.7 60 15.6 93 93 SE 13 20 30.02 1017 N/A 0.00 0.00
7:31 am 07:31 Cloudy 63 17 61 16 94 94 SSE 14 22 29.97 1015 N/A 0.00 0.00
7:56 am 07:56 Cloudy 63 17.2 60 15.6 90 90 SSE 13 20 30.02 1017 N/A 0.00 0.00
8:09 am 08:09 Cloudy 63 17 61 16 94 94 SSE 13 20 29.97 1015 N/A 0.00 0.00
8:56 am 08:56 Cloudy 64 17.8 61 16.1 90 90 SSE 15 24 30.04 1017 N/A 0.00 0.00
9:16 am 09:16 Cloudy 64 18 63 17 94 94 undefined N/A N/A N/A 0.00 0.00
9:23 am 09:23 undefined 64 18 63 17 94 94 S 14 22 29.97 1015 N/A 0.00 0.00
9:56 am 09:56 Cloudy 66 18.9 62 16.7 87 87 SSE 12 19 30.03 1017 N/A 0.00 0.00
10:56 am 10:56 Cloudy 69 20.6 63 17.2 81 81 S 14 22 30.03 1017 N/A 0.00 0.00
11:07 am 11:07 Cloudy 70 21 64 18 83 83 S 17 28 29.94 1014 N/A 0.00 0.00
11:56 am 11:56 Cloudy 71 21.7 65 18.3 81 81 S 17 28 30.02 1017 N/A 0.00 0.00
12:56 pm 12:56 Cloudy 72 22.2 65 18.3 79 79 S 15 24 30.00 1016 N/A 0.00 0.00
1:56 pm 13:56 Cloudy 73 22.8 66 18.9 79 79 SE 12 19 30.01 1016 N/A 0.00 0.00
2:56 pm 14:56 Cloudy 74 23.3 66 18.9 76 76 S 10 17 30.01 1016 N/A 0.00 0.00
3:56 pm 15:56 Cloudy 76 24.4 67 19.4 74 74 SSE 14 22 29.98 1015 N/A 0.00 0.00
4:54 pm 16:54 Cloudy 75 24 68 20 78 78 SSE 15 24 29.88 1012 N/A 0.00 0.00
4:56 pm 16:56 Cloudy 76 24.4 68 20 77 77 SSE 18 30 29.97 1015 N/A 0.00 0.00
5:56 pm 17:56 Cloudy 75 23.9 68 20 79 79 SSE 14 22 29.97 1015 N/A 0.00 0.00
6:56 pm 18:56 Cloudy 74 23.3 67 19.4 79 79 SE 17 28 29.93 1014 N/A 0.00 0.00
7:27 pm 19:27 Cloudy with Nearby Thunderstorms 73 23 66 19 78 78 SSE 20 31 29.88 1012 N/A 0.00 0.00
7:56 pm 19:56 Cloudy with Thunderstorms 71 21.7 64 17.8 79 79 N 18 30 30.03 1017 N/A 0.00 0.00
8:10 pm 20:10 Cloudy with Strong Thunderstorms 64 18 63 17 94 94 NW 14 22 30.00 1016 N/A 0.13 3.30
8:30 pm 20:30 Cloudy with Strong Thunderstorms 64 18 63 17 94 94 N 12 19 29.97 1015 N/A 0.65 16.51
8:39 pm 20:39 Cloudy with Thunderstorms 64 18 63 17 94 94 E 10 17 29.97 1015 N/A 0.68 17.27
8:56 pm 20:56 Cloudy with Thunderstorms 63 17.2 61 16.1 93 93 ESE 6 9 30.02 1017 N/A 0.71 18.03
9:13 pm 21:13 Cloudy with Thunderstorms 64 18 63 17 94 94 SSW 10 17 30.00 1016 N/A 0.03 0.76
9:56 pm 21:56 Cloudy with Rain 63 17.2 62 16.7 97 97 S 13 20 30.07 1018 N/A 0.15 3.81
10:09 pm 22:09 Cloudy with Nearby Thunderstorms 63 17 63 17 100 100 SE 14 22 29.97 1015 N/A 0.01 0.25
10:24 pm 22:24 Cloudy with Light Rain 63 17 63 17 100 100 SE 14 22 29.97 1015 N/A 0.01 0.25
10:40 pm 22:40 Cloudy with Light Rain 63 17 63 17 100 100 SE 13 20 30.00 1016 N/A 0.02 0.51
10:56 pm 22:56 Cloudy with Nearby Thunderstorms 63 17.2 62 16.7 97 97 S 13 20 30.05 1018 N/A 0.03 0.76
11:26 pm 23:26 Cloudy with Light Rain 63 17 63 17 100 100 SSE 15 24 30.00 1016 N/A 0.01 0.25
11:43 pm 23:43 Cloudy with Nearby Thunderstorms 63 17 63 17 100 100 S 14 22 30.00 1016 N/A 0.01 0.25
11:56 pm 23:56 Cloudy with Light Rain 64 17.8 62 16.7 93 93 SSE 15 24 30.02 1017 N/A 0.01 0.25

Powered by AerisWeather